Weather History for Morristown, NJ

Change the Weather History Date:

Friday, March 15, 2013

  Actual Average Record
Temperature  
Mean Temperature 37 °F -  
Max Temperature 46 °F 47 °F 75 °F (1957)
Min Temperature 28 °F 28 °F 10 °F (1993)
Degree Days  
Heating Degree Days 28    
Moisture  
Dew Point 16 °F    
Average Humidity 44    
Maximum Humidity 55    
Minimum Humidity 35    
Precipitation  
Precipitation 0.00 in - - ()
Sea Level Pressure  
Sea Level Pressure 29.90 in    
Wind  
Wind Speed 9 mph (WNW)    
Max Wind Speed 23 mph    
Max Gust Speed 29 mph    
Visibility 10 miles    
Events      
Averages and records for this station are not official NWS values.
T = Trace of Precipitation, MM = Missing Value Source: NWS Daily Summary

Daily Weather History Graph

Daily Weather History Graph

Search for Another Location

Airport:

Trip Planner

Search our weather history database for the weather conditions in past years. The results will help you decide how hot, cold, wet, or windy it might be!

Date:

Astronomy

Mar. 15, 2013 Rise Set
Actual Time 7:08 AM EDT 7:04 PM EDT
Civil Twilight 6:41 AM EDT 7:31 PM EDT
Nautical Twilight 6:09 AM EDT 8:03 PM EDT
Astronomical Twilight 5:37 AM EDT 8:36 PM EDT
Moon 8:56 AM EDT (3/15) 11:18 PM EDT (3/15)
Length of Visible Light 12h 50m
Length of Day
11h 55m
Waxing Crescent, 15% of the Moon is Illuminated
Mar 15
Waxing Crescent
Mar 19
First Quarter
Mar 27
Full
Apr 3
Last Quarter
Apr 10
New

Hourly Weather History & Observations

Time (EDT) Temp. Windchill Dew Point Humidity Pressure Visibility Wind Dir Wind Speed Gust Speed Precip Events Conditions
12:15 AM 33.8 °F 28.6 °F 8.6 °F 35% 29.98 in 10.0 mi NW 5.8 mph - N/A   Scattered Clouds
12:35 AM 33.8 °F 25.3 °F 8.6 °F 35% 29.98 in 10.0 mi NW 11.5 mph 17.3 mph N/A   Scattered Clouds
12:55 AM 33.8 °F 23.5 °F 8.6 °F 35% 29.98 in 10.0 mi WNW 16.1 mph 26.5 mph N/A   Scattered Clouds
1:15 AM 33.8 °F 30.8 °F 8.6 °F 35% 29.98 in 10.0 mi WNW 3.5 mph 17.3 mph N/A   Scattered Clouds
1:35 AM 33.8 °F 25.8 °F 10.4 °F 38% 29.98 in 10.0 mi NW 10.4 mph - N/A   Scattered Clouds
1:55 AM 33.8 °F 24.8 °F 10.4 °F 38% 29.99 in 10.0 mi NW 12.7 mph 23.0 mph N/A   Scattered Clouds
2:15 AM 32.0 °F 26.4 °F 10.4 °F 41% 29.98 in 10.0 mi West 5.8 mph - N/A   Scattered Clouds
2:35 AM 32.0 °F 23.6 °F 12.2 °F 44% 29.98 in 10.0 mi WNW 10.4 mph 24.2 mph N/A   Scattered Clouds
2:55 AM 32.0 °F 22.1 °F 12.2 °F 44% 29.98 in 10.0 mi WNW 13.8 mph 23.0 mph N/A   Clear
3:15 AM 32.0 °F 23.6 °F 12.2 °F 44% 29.98 in 10.0 mi WNW 10.4 mph 19.6 mph N/A   Clear
3:35 AM 32.0 °F 23.6 °F 12.2 °F 44% 29.98 in 10.0 mi WNW 10.4 mph 17.3 mph N/A   Clear
3:55 AM 32.0 °F 23.0 °F 12.2 °F 44% 29.98 in 10.0 mi WNW 11.5 mph 16.1 mph N/A   Clear
4:15 AM 32.0 °F 23.0 °F 12.2 °F 44% 29.97 in 10.0 mi WNW 11.5 mph 18.4 mph N/A   Clear
4:35 AM 32.0 °F 25.6 °F 12.2 °F 44% 29.97 in 10.0 mi WNW 6.9 mph 17.3 mph N/A   Clear
4:55 AM 32.0 °F 26.4 °F 12.2 °F 44% 29.97 in 10.0 mi West 5.8 mph - N/A   Clear
5:15 AM 32.0 °F 25.6 °F 12.2 °F 44% 29.97 in 10.0 mi West 6.9 mph - N/A   Clear
5:35 AM 32.0 °F 24.8 °F 12.2 °F 44% 29.97 in 10.0 mi West 8.1 mph - N/A   Clear
5:55 AM 32.0 °F 25.6 °F 12.2 °F 44% 29.98 in 10.0 mi WNW 6.9 mph - N/A   Clear
6:15 AM 32.0 °F 25.6 °F 12.2 °F 44% 29.98 in 10.0 mi NW 6.9 mph - N/A   Clear
6:35 AM 30.2 °F 21.9 °F 12.2 °F 47% 29.98 in 10.0 mi West 9.2 mph - N/A   Clear
7:45 AM 28.4 °F 22.2 °F 14.0 °F 55% 29.99 in 10.0 mi WSW 5.8 mph - N/A   Clear
8:45 AM 30.2 °F 22.6 °F 15.8 °F 55% 29.98 in 10.0 mi West 8.1 mph - N/A   Mostly Cloudy
9:45 AM 32.0 °F 24.8 °F 15.8 °F 51% 29.96 in 10.0 mi WSW 8.1 mph - N/A   Mostly Cloudy
10:45 AM 35.6 °F 27.1 °F 14.0 °F 41% 29.93 in 10.0 mi SW 12.7 mph 20.7 mph N/A   Mostly Cloudy
11:45 AM 39.2 °F 32.5 °F 15.8 °F 39% 29.90 in 10.0 mi WSW 10.4 mph 19.6 mph N/A   Mostly Cloudy
12:45 PM 41.0 °F 33.5 °F 17.6 °F 39% 29.86 in 10.0 mi West 13.8 mph 20.7 mph N/A   Overcast
1:45 PM 41.0 °F 32.5 °F 19.4 °F 42% 29.82 in 10.0 mi West 17.3 mph 25.3 mph N/A   Overcast
2:45 PM 42.8 °F 36.2 °F 21.2 °F 42% 29.79 in 10.0 mi WSW 12.7 mph 24.2 mph N/A   Overcast
3:49 PM 44.6 °F 37.2 °F 23.0 °F 43% 29.75 in 10.0 mi West 17.3 mph 28.8 mph N/A   Mostly Cloudy
4:45 PM 44.6 °F 35.9 °F 23.0 °F 43% 29.74 in 10.0 mi WNW 23.0 mph - N/A   Overcast
5:45 PM 46.4 °F 41.5 °F 24.8 °F 43% 29.72 in 10.0 mi West 10.4 mph 16.1 mph N/A   Overcast
6:45 PM 46.4 °F 42.4 °F 24.8 °F 43% 29.73 in 10.0 mi West 8.1 mph 15.0 mph N/A   Overcast
7:45 PM 46.4 °F 44.3 °F 24.8 °F 43% 29.74 in 10.0 mi WNW 4.6 mph - N/A   Overcast
9:45 PM 44.6 °F 43.1 °F 28.4 °F 53% 29.76 in 10.0 mi NW 3.5 mph - N/A   Overcast
10:55 PM 44.6 °F 42.2 °F 28.4 °F 53% 29.78 in 10.0 mi North 4.6 mph - N/A   Overcast
11:15 PM 44.6 °F 41.4 °F 28.4 °F 53% 29.78 in 10.0 mi NNW 5.8 mph - N/A   Overcast
11:35 PM 44.6 °F 42.2 °F 28.4 °F 53% 29.79 in 10.0 mi NW 4.6 mph - N/A   Overcast
11:55 PM 44.6 °F 41.4 °F 28.4 °F 53% 29.79 in 10.0 mi NNW 5.8 mph - N/A   Overcast